Location: Powder Track
(41.8531°N, 72.3584°W)
Time: 07:20:36
(UTC+00:00)

Transit 4A - Pass Details

Date: 07 August 2021
Orbit: 871 x 974 km, 66.8° (Epoch: 20 September)

Event Time Altitude Azimuth Distance (km) Brightness Sun altitude
Rises 10:04:02 0° 339° (NNW) 3,473 10.9 1.7°
Reaches altitude 10° 10:07:48 10° 3° (N) 2,542 10.6 2.3°
Maximum altitude 10:10:57 15° 36° (NE) 2,240 10.9 2.9°
Drops below altitude 10° 10:14:06 10° 69° (ENE) 2,563 13.0 3.4°
Sets 10:17:55 0° 93° (E) 3,522 12.5 4.1°
